Regional Weather Roundup
Issued by NWS Sioux Falls, SD

Home | Current Version | Previous Version | Graphics & Text | Print | Product List | Glossary Off
Versions: 1 2 3 4 5 6 7 8 9 10 11 12 13 14 15 16 17 18 19 20 21 22 23 24 25 26 27 28 29 30 31 32 33 34 35 36 37 38 39 40 41 42 43 44 45 46 47 48 49 50

000
ASUS43 KFSD 220310
RWRFSD

WEATHER ROUNDUP FOR SE SOUTH DAKOTA/SW MINNESOTA/NW IOWA
NATIONAL WEATHER SERVICE SIOUX FALLS SD
1000 PM CDT SUN SEP 21 2014

NOTE: "FAIR" INDICATES FEW OR NO CLOUDS BELOW 12,000 FEET WITH NO
SIGNIFICANT WEATHER AND OR OBSTRUCTIONS TO VISIBILITY.


SDZ038>040-050-052>070-220400-
SOUTHEAST SOUTH DAKOTA

CITY           SKY/WX    TMP DP  RH WIND       PRES   REMARKS
CHAMBERLAIN    CLEAR     54  45  72 E3        30.26S
HURON          CLEAR     53  45  74 SE5       30.25R
MADISON        FAIR      46  46 100 NW3       30.27S
MITCHELL       CLEAR     57  48  72 E3        30.26R
SIOUX FALLS    CLEAR     54  47  77 CALM      30.26R
WINNER         FAIR      58  41  53 S5        30.27R
YANKTON        CLEAR     52  45  76 NW5       30.27R
$$

MNZ071-072-080-081-089-090-097-098-220400-
SOUTHWEST MINNESOTA

CITY           SKY/WX    TMP DP  RH WIND       PRES   REMARKS
FAIRMONT       CLEAR     52  45  76 NW5       30.25R
JACKSON        CLEAR     50  45  81 NW6       30.26R
LUVERNE        CLEAR     52  45  76 N3        30.26S
MARSHALL       CLEAR     48  43  81 CALM      30.25R
MONTEVIDEO     CLEAR     52  46  82 CALM      30.26R
PIPESTONE      CLEAR     54  46  76 CALM      30.26S
REDWOOD FALLS  CLEAR     54  49  83 NW5       30.25R
TRACY          CLEAR     51  47  88 CALM      30.26S
WINDOM         CLEAR     50  46  87 CALM      30.26R
WORTHINGTON    CLEAR     50  45  81 NW3       30.27R
$$

IAZ001>003-012>014-020>022-031-032-NEZ013-014-SDZ071-220400-
NORTHWEST IOWA

CITY           SKY/WX    TMP DP  RH WIND       PRES   REMARKS
CHEROKEE       CLEAR     51  50  97 CALM      30.26R
DENISON        CLEAR     52  50  93 CALM      30.24R
ESTHERVILLE    CLEAR     48  45  89 NW5       30.25R
LE MARS          N/A     52  50  93 N3        30.27R
ORANGE CITY    CLEAR     61  46  59 CALM      30.27R
SHELDON        CLEAR     48  46  93 CALM      30.26R
SIOUX CITY     CLEAR     53  50  89 CALM      30.26R
SPENCER        CLEAR     49  46  90 CALM      30.26R
$$

ABBREVIATIONS USED IN REMARKS
   TC - TEMPERATURE IN CELSIUS
  WCI - WIND CHILL INDEX
   HX - HEAT INDEX
  VSB - VISIBILITY



USA.gov is the U.S. government's official web portal to all federal, state and local government web resources and services.